Wind_Speed
14 16 17 14 14 15 17 17 18 19 20 19 18 18 18 18 18 19 20 19 19 18 18 18 17 16 16 16 16 16 16 16 16 16 16 15 15 15 15 17 18 18 19 19
15 14 15 15 15 15 16 17 17 18 20 19 19 19 20 19 19 19 18 18 18 17 17 17 16 16 15 15 15 15 15 15 15 15 15 15 14 14 15 16 16 17 17 18
14 13 14 15 14 16 16 16 17 18 19 18 19 17 18 18 17 17 17 16 16 17 16 16 16 15 15 15 15 15 14 14 13 13 13 13 14 14 14 15 15 16 17 17
13 14 15 14 14 14 15 15 17 18 18 17 16 16 16 16 16 16 16 16 16 16 16 16 15 14 14 14 14 14 13 13 12 12 12 13 13 13 14 15 15 16 16 16
14 15 15 15 16 15 15 15 16 17 17 16 15 16 16 14 14 14 14 15 14 14 15 15 14 14 13 13 13 13 12 11 11 11 11 12 12 13 14 14 15 15 15 16
15 16 15 13 15 16 15 15 16 16 15 15 14 15 15 14 14 13 13 12 12 12 12 13 12 12 11 11 11 10 10 10 9 10 10 11 11 12 12 13 14 14 14 14
16 16 15 14 14 14 15 16 15 15 14 14 14 14 13 14 14 13 12 12 11 11 11 11 10 11 10 9 9 8 8 9 9 9 9 9 10 11 12 13 14 14 13 13
16 16 14 14 14 14 15 15 13 13 13 13 13 13 12 13 13 12 12 11 10 11 11 10 10 10 9 8 7 8 8 8 8 7 8 8 9 11 12 13 14 14 13 13
17 16 15 13 14 14 14 14 12 12 12 12 12 12 11 11 12 11 11 10 10 10 10 9 8 8 7 7 6 6 7 6 6 6 7 7 9 10 12 13 13 13 13 14
16 15 15 14 14 15 14 14 12 11 11 11 11 10 9 10 9 9 9 8 8 8 7 7 6 6 6 6 5 5 5 6 6 6 7 8 9 11 12 12 13 14 14 14
17 16 14 13 14 14 13 12 11 10 10 10 10 9 9 8 7 7 6 6 6 6 6 5 5 5 5 5 5 4 5 6 6 6 7 9 10 11 12 13 13 14 14 14
17 16 13 13 13 12 11 10 10 10 9 9 9 9 8 7 6 6 5 5 5 5 4 3 4 4 4 4 4 4 5 5 6 7 8 9 10 12 12 12 13 14 14 15
15 15 13 11 11 11 10 10 10 9 9 8 8 7 7 6 5 5 5 4 3 3 3 3 4 4 3 3 3 4 4 5 7 8 9 10 11 12 12 12 13 14 15 16
14 13 11 10 10 10 9 10 9 8 8 7 7 6 6 5 4 4 4 3 3 3 3 4 4 3 2 3 3 3 5 6 7 8 9 10 11 12 12 13 13 14 15 17
14 13 12 11 10 9 9 9 9 8 7 6 6 6 5 4 3 3 3 3 3 3 3 4 3 3 2 2 2 4 5 7 8 9 9 10 11 12 13 14 15 15 16 17
12 12 11 10 9 9 8 7 8 8 7 6 5 4 4 3 3 3 3 3 3 3 3 3 3 2 2 2 3 4 5 6 8 9 9 10 11 12 13 14 16 16 17 18
12 11 10 10 9 8 8 7 8 7 6 5 4 3 3 3 3 3 2 2 2 2 3 3 3 2 2 3 3 4 5 6 8 8 9 10 12 13 14 15 16 18 19 20
10 10 10 9 9 8 7 6 6 5 5 4 4 3 2 2 2 1 1 2 2 2 2 2 2 3 3 3 3 4 6 7 8 9 10 11 12 14 15 16 18 19 20 21
10 10 10 9 9 7 6 5 5 5 4 4 3 3 2 2 1 1 0 1 2 2 2 2 2 3 3 3 4 5 6 7 9 10 11 13 14 15 17 18 20 21 21 22
9 9 9 9 8 7 6 5 5 5 4 3 3 2 2 2 1 1 0 1 2 2 3 3 3 3 4 4 4 5 7 8 10 11 12 14 15 16 18 19 21 22 23 24
10 10 9 8 7 7 6 6 5 4 4 3 3 3 2 2 2 2 1 1 2 2 3 3 4 4 4 4 5 6 8 9 11 12 13 15 16 18 19 21 22 24 25 26
11 11 10 9 8 7 6 6 6 5 4 4 4 3 3 3 3 2 1 2 2 2 3 3 3 4 5 5 6 8 9 11 12 13 15 16 17 19 20 22 24 25 26 27
11 11 11 10 9 8 7 7 6 6 5 4 4 4 4 3 3 2 2 2 2 2 3 3 3 4 5 6 7 9 11 12 14 15 16 17 19 20 22 24 25 26 28 29
12 12 12 11 10 9 8 7 7 6 5 5 4 4 3 3 3 3 3 3 3 2 3 3 4 5 6 8 9 11 12 13 14 16 17 19 20 22 24 26 27 28 29 29
14 13 12 12 11 10 9 8 7 6 5 5 4 4 3 3 3 3 3 3 3 4 4 4 5 6 7 9 10 11 13 14 16 17 19 21 23 24 26 27 28 29 30 31
15 14 13 12 11 10 9 8 7 6 6 5 4 3 3 2 2 2 2 3 3 4 5 5 6 7 9 10 11 12 14 15 17 19 20 22 24 26 27 28 29 30 31 32
16 15 14 13 12 11 9 8 7 6 6 5 4 3 3 2 1 1 1 2 3 4 5 6 8 9 11 12 13 14 16 17 19 20 22 23 25 27 28 29 30 31 32 33
Wind_Direction
260 267 270 272 269 270 273 275 276 280 281 288 290 290 288 292 292 291 293 293 291 291 288 288 289 289 288 287 287 288 290 294 296 303 308 310 313 315 319 321 321 321 322 323
259 266 273 272 272 271 269 272 276 278 281 284 289 290 289 290 291 292 294 293 292 289 291 291 288 289 288 287 287 286 289 293 298 303 307 309 313 316 321 324 325 325 325 325
260 264 269 265 266 268 268 273 279 278 282 285 290 291 290 291 290 290 289 289 292 292 291 291 289 290 289 287 287 286 289 294 299 302 306 310 314 321 324 325 326 326 328 328
260 260 269 271 270 269 269 270 276 279 282 287 293 292 291 292 293 292 288 287 290 290 291 290 289 289 289 288 288 289 291 291 294 300 307 314 317 320 322 324 324 327 331 332
255 260 266 271 275 275 271 274 279 281 284 285 289 292 293 296 295 292 290 288 290 291 292 291 288 289 289 288 289 292 291 294 298 302 308 315 319 322 324 327 329 331 332 333
253 260 265 268 274 277 272 274 277 282 286 287 290 291 293 295 294 293 292 296 298 300 298 293 289 289 288 287 288 291 294 299 303 306 311 317 321 325 329 332 334 334 335 337
252 258 267 272 274 273 271 278 279 282 286 286 291 293 296 295 295 295 297 301 301 304 303 298 293 291 290 293 295 295 299 300 302 306 311 317 323 327 333 338 341 341 339 340
253 255 258 266 271 270 272 277 275 282 289 292 296 297 296 297 297 296 297 297 299 300 299 295 293 294 291 292 296 295 300 304 303 307 312 319 326 331 337 341 342 345 346 346
247 253 260 264 267 271 272 278 281 282 285 289 294 296 295 297 297 298 298 297 300 299 298 295 296 299 295 294 298 302 304 306 306 309 312 319 327 332 336 338 341 345 345 345
254 256 255 256 265 269 274 274 275 280 283 288 293 296 297 300 305 303 303 300 302 304 303 300 297 295 294 295 299 305 310 309 309 310 317 324 328 331 336 339 341 342 343 343
253 256 259 255 260 269 273 272 272 277 282 286 288 292 295 298 305 310 311 312 311 309 303 297 295 292 290 293 299 307 313 321 322 325 327 329 330 333 336 338 340 341 342 342
250 248 255 257 263 265 267 265 266 273 279 283 285 289 293 295 300 305 308 311 313 313 313 311 317 315 308 306 306 311 315 329 334 333 331 329 330 333 336 336 338 339 340 340
249 248 253 257 260 260 259 259 260 266 273 278 282 289 293 295 297 302 309 313 319 324 326 323 324 325 327 323 324 329 335 332 329 330 330 330 332 335 335 335 335 336 337 338
243 244 248 254 255 256 255 254 251 255 264 269 279 288 288 291 298 298 306 311 324 331 332 330 328 324 311 325 338 346 339 334 332 332 334 335 336 335 335 334 334 335 336 336
235 239 245 246 248 251 250 248 247 250 256 263 275 284 280 278 286 291 301 314 321 325 331 333 333 331 324 317 325 339 338 337 338 337 336 337 338 338 337 338 337 337 337 337
233 234 237 240 244 245 241 240 243 245 244 255 268 271 265 255 265 283 296 300 305 315 327 335 339 341 342 342 343 346 345 342 343 344 342 339 338 337 339 340 339 338 337 336
230 226 229 235 235 235 232 233 238 238 235 240 257 256 264 261 261 278 292 310 315 314 326 334 338 339 335 331 336 341 345 346 345 345 346 346 344 343 342 341 340 339 338 336
222 217 218 221 223 225 226 229 231 225 222 229 238 241 249 259 263 275 308 338 355 358 350 342 337 337 344 345 343 346 349 349 348 346 346 345 345 345 344 344 343 341 339 338
210 207 208 211 211 213 215 217 217 216 216 221 225 222 222 230 228 237 335 3 12 16 17 12 4 359 355 351 352 353 351 348 344 342 343 343 342 343 342 342 341 340 337 336
198 193 197 200 202 204 208 209 206 207 204 202 196 191 181 168 160 143 79 36 36 36 36 33 26 21 15 9 1 355 351 348 345 342 340 340 340 340 339 338 337 336 335 335
192 189 189 189 192 196 196 194 192 189 180 174 166 158 150 146 139 123 90 67 44 34 37 36 27 28 30 24 9 358 355 351 348 344 341 340 340 339 338 338 337 336 335 334
190 185 181 182 183 182 181 176 171 167 163 160 156 149 140 136 130 110 81 53 33 40 32 23 25 28 19 11 4 358 354 351 349 347 344 341 340 339 338 337 336 336 335 335
186 182 180 182 179 172 167 164 164 161 156 152 148 138 127 117 104 82 65 62 65 52 33 22 16 8 0 358 354 349 347 346 345 344 342 342 342 341 339 338 337 336 336 336
182 180 180 179 177 171 167 164 163 161 155 146 140 131 121 110 95 89 87 77 63 44 30 17 4 356 354 353 350 346 343 344 344 343 342 342 341 340 339 338 338 338 338 338
181 179 178 177 176 176 174 169 167 164 157 148 141 133 120 110 103 97 86 69 54 41 32 18 5 358 353 350 347 345 345 345 344 343 343 341 340 340 339 339 339 339 338 337
183 181 180 180 179 179 179 174 168 164 160 157 150 144 135 123 116 105 81 59 40 28 20 12 4 357 352 350 348 347 345 344 343 342 341 341 340 340 339 339 339 338 337 336
188 186 186 186 186 185 183 179 176 173 169 167 163 161 154 149 142 128 57 19 11 5 359 354 351 349 348 346 344 343 343 342 341 341 340 339 339 338 338 338 338 337 337 337
Height
5795 5796 5795 5796 5797 5797 5797 5796 5795 5793 5791 5789 5788 5786 5785 5784 5783 5782 5781 5780 5779 5778 5777 5776 5775 5774 5773 5773 5772 5772 5772 5771 5770 5769 5768 5766 5764 5762 5760 5757 5755 5752 5749 5746
5792 5793 5792 5793 5793 5793 5792 5792 5790 5789 5787 5786 5784 5783 5782 5781 5780 5778 5777 5776 5775 5774 5773 5772 5771 5770 5769 5769 5768 5768 5768 5768 5767 5766 5765 5763 5761 5759 5757 5755 5752 5749 5746 5743
5787 5788 5788 5788 5789 5788 5788 5787 5786 5784 5784 5783 5780 5779 5778 5777 5775 5774 5773 5773 5771 5770 5769 5768 5767 5767 5766 5765 5765 5765 5764 5764 5763 5763 5762 5760 5758 5756 5754 5752 5750 5747 5744 5741
5783 5784 5784 5786 5784 5783 5783 5782 5782 5781 5780 5778 5777 5776 5774 5773 5772 5771 5770 5769 5768 5767 5765 5764 5763 5763 5763 5762 5762 5761 5761 5761 5760 5760 5759 5757 5756 5754 5752 5750 5747 5744 5742 5739
5779 5779 5779 5781 5780 5780 5779 5779 5778 5777 5776 5775 5775 5773 5771 5770 5769 5768 5766 5765 5764 5762 5761 5760 5760 5760 5759 5759 5759 5759 5759 5758 5758 5757 5756 5755 5753 5751 5749 5747 5744 5742 5740 5737
5775 5775 5775 5778 5777 5776 5776 5775 5775 5774 5773 5772 5772 5770 5769 5767 5765 5764 5763 5761 5760 5759 5757 5757 5757 5756 5757 5757 5756 5756 5756 5756 5755 5754 5754 5752 5751 5749 5747 5745 5742 5740 5738 5735
5771 5771 5772 5772 5773 5773 5774 5773 5772 5771 5770 5769 5768 5767 5766 5764 5763 5761 5760 5759 5757 5756 5755 5754 5754 5754 5754 5754 5754 5754 5753 5753 5753 5752 5751 5750 5748 5747 5745 5743 5741 5738 5736 5733
5767 5767 5770 5769 5769 5770 5770 5769 5768 5768 5767 5766 5766 5764 5763 5762 5760 5759 5757 5756 5755 5754 5753 5752 5752 5751 5751 5752 5752 5751 5751 5751 5750 5750 5749 5748 5747 5745 5744 5742 5739 5737 5734 5732
5763 5765 5764 5764 5765 5765 5766 5765 5765 5765 5765 5764 5763 5762 5761 5760 5758 5757 5755 5754 5753 5752 5751 5750 5750 5750 5750 5750 5750 5750 5749 5749 5748 5748 5747 5746 5745 5744 5742 5740 5738 5736 5733 5731
5758 5759 5760 5761 5761 5762 5763 5762 5762 5762 5762 5762 5761 5760 5759 5757 5756 5754 5753 5752 5751 5751 5749 5749 5748 5748 5749 5748 5748 5748 5748 5747 5747 5746 5746 5745 5744 5742 5741 5739 5737 5734 5732 5729
5754 5756 5756 5758 5758 5759 5759 5759 5759 5759 5759 5759 5758 5758 5757 5755 5754 5753 5752 5751 5750 5749 5749 5748 5748 5747 5747 5747 5747 5747 5747 5746 5746 5745 5745 5744 5743 5741 5739 5737 5735 5733 5731 5728
5750 5752 5753 5755 5756 5756 5756 5756 5757 5757 5757 5757 5756 5755 5755 5754 5753 5752 5751 5750 5749 5749 5748 5748 5747 5747 5747 5746 5746 5746 5746 5746 5745 5745 5744 5743 5742 5740 5738 5736 5734 5731 5729 5726
5746 5749 5750 5751 5752 5753 5753 5754 5754 5755 5755 5755 5754 5753 5753 5752 5751 5751 5750 5749 5749 5748 5748 5747 5747 5747 5746 5746 5746 5746 5745 5745 5745 5744 5743 5741 5740 5738 5737 5735 5732 5730 5728 5725
5744 5746 5747 5749 5750 5750 5750 5751 5751 5752 5752 5753 5752 5752 5751 5751 5750 5750 5749 5749 5748 5748 5748 5747 5747 5746 5746 5746 5746 5746 5745 5745 5744 5743 5742 5740 5739 5737 5735 5733 5731 5729 5726 5723
5740 5743 5745 5746 5747 5748 5748 5749 5749 5750 5750 5751 5751 5750 5750 5749 5749 5749 5749 5748 5748 5748 5747 5747 5746 5746 5746 5746 5746 5745 5745 5744 5743 5742 5740 5739 5737 5736 5734 5731 5729 5727 5724 5721
5738 5740 5742 5744 5744 5745 5746 5747 5748 5748 5749 5749 5749 5749 5749 5749 5749 5748 5748 5748 5748 5748 5747 5747 5746 5746 5746 5746 5746 5745 5745 5744 5743 5741 5740 5738 5737 5735 5733 5730 5727 5725 5722 5719
5735 5737 5740 5741 5742 5743 5744 5745 5746 5747 5747 5748 5748 5748 5748 5748 5748 5748 5748 5748 5747 5747 5747 5746 5746 5746 5746 5745 5745 5745 5744 5743 5742 5741 5740 5738 5736 5734 5731 5729 5726 5723 5719 5716
5733 5736 5738 5739 5741 5742 5743 5744 5744 5745 5746 5746 5747 5747 5747 5747 5747 5748 5748 5747 5747 5747 5746 5746 5746 5746 5745 5745 5745 5744 5744 5743 5742 5741 5739 5737 5735 5733 5730 5727 5724 5721 5717 5713
5732 5734 5736 5738 5739 5741 5742 5743 5743 5744 5745 5745 5746 5746 5747 5747 5747 5747 5747 5747 5747 5747 5747 5746 5746 5746 5746 5745 5745 5744 5744 5743 5742 5740 5739 5737 5734 5732 5729 5726 5722 5719 5715 5711
5731 5734 5736 5737 5739 5740 5741 5742 5743 5743 5744 5745 5746 5746 5746 5747 5747 5747 5747 5747 5747 5747 5747 5747 5747 5746 5746 5745 5745 5744 5744 5743 5741 5740 5738 5736 5733 5730 5727 5724 5720 5717 5713 5708
5732 5734 5736 5737 5738 5740 5741 5741 5742 5743 5744 5745 5746 5746 5747 5747 5747 5748 5748 5748 5748 5748 5748 5748 5747 5747 5747 5746 5746 5745 5744 5742 5741 5739 5737 5734 5732 5729 5726 5722 5718 5714 5710 5705
5732 5734 5736 5737 5739 5740 5741 5742 5743 5744 5745 5746 5746 5747 5747 5748 5748 5748 5749 5749 5749 5749 5749 5749 5748 5748 5748 5747 5746 5745 5744 5742 5740 5738 5736 5733 5730 5727 5723 5719 5715 5711 5706 5701
5732 5734 5736 5738 5739 5740 5742 5743 5744 5745 5746 5747 5747 5748 5748 5749 5749 5749 5750 5750 5750 5750 5749 5749 5749 5749 5748 5747 5746 5745 5744 5742 5740 5737 5735 5732 5728 5725 5721 5717 5712 5707 5702 5697
5732 5734 5736 5738 5740 5742 5743 5744 5745 5746 5747 5748 5749 5749 5749 5750 5750 5750 5751 5751 5750 5750 5750 5750 5750 5749 5748 5747 5746 5745 5743 5741 5739 5736 5733 5730 5726 5722 5718 5714 5709 5704 5699 5693
5732 5734 5736 5739 5741 5742 5744 5745 5746 5748 5748 5749 5750 5751 5751 5751 5751 5752 5752 5752 5752 5751 5751 5751 5750 5749 5749 5747 5746 5744 5742 5740 5737 5734 5731 5728 5724 5719 5715 5710 5705 5700 5695 5690
5732 5734 5737 5739 5741 5743 5744 5746 5747 5748 5749 5750 5751 5752 5752 5752 5752 5753 5753 5753 5753 5752 5752 5751 5751 5750 5748 5747 5745 5743 5741 5738 5736 5732 5729 5725 5721 5717 5712 5707 5702 5697 5692 5686
5731 5734 5736 5739 5741 5743 5745 5746 5748 5749 5750 5751 5752 5753 5753 5753 5753 5754 5754 5754 5753 5753 5752 5752 5750 5749 5748 5746 5744 5742 5740 5737 5734 5730 5727 5723 5719 5714 5709 5704 5699 5693 5687 5682